Regional Weather Roundup
Issued by NWS Sterling, VA

Home | Current Version | Previous Version | Graphics & Text | Print | Product List | Glossary On
Versions: 1 2 3 4 5 6 7 8 9 10 11 12 13 14 15 16 17 18 19 20 21 22 23 24 25 26 27 28 29 30 31 32 33 34 35 36 37 38 39 40 41 42 43 44 45 46 47 48 49 50
670
ASUS41 KLWX 101910
RWRLWX

REGIONAL WEATHER ROUNDUP
NATIONAL WEATHER SERVICE BALTIMORE MD/WASHINGTON DC
200 PM EST SAT DEC 10 2016

Note: "FAIR" indicates few or no clouds below 12,000 feet
with no significant weather and/or obstructions to visibility.
 TC=TEMPERATURE CELSIUS

 * =Non NWS site. Station does not report precipitation (e.g. rain,
    snow, etc.), thunder, or fog.

DCZ001-MDZ009-015-VAZ040>042-051-053>054-102000-
WASHINGTON METRO

CITY           SKY/WX    TMP DP  RH WIND       PRES   REMARKS
WASHINGTON NAT MOSUNNY   38  13  35 W13G22    30.45F
DULLES         MOSUNNY   34  12  40 NW12G20   30.44F WCI  25
ANDREWS AFB    SUNNY     36  12  37 NW14      30.41F WCI  27
QUANTICO       SUNNY     39  14  36 NW10      30.46F
COLLEGE PARK*  SUNNY     34  12  40 W7G20     30.44S
LEESBURG*      PTSUNNY   36  18  48 NW13      30.45F WCI  27
MANASSAS*      MOSUNNY  N/A N/A N/A NW6       30.45F
GAITHERSBURG*  MOSUNNY   32  10  40 NW14G20   30.46S WCI  22

$$

MDZ006>007-011-014-102000-
BALTIMORE METRO

CITY           SKY/WX    TMP DP  RH WIND       PRES   REMARKS
BWI AIRPORT    MOSUNNY   34  14  43 NW15G23   30.42F WCI  24
MD SCIENCE CTR   N/A     36  12  37 MISG      30.43F
MARTIN STATE   MOSUNNY   37  18  44 W10G17    30.43F
ANNAPOLIS      MOSUNNY   38  14  37 W8G17     30.43F
FORT MEADE*    PTSUNNY   36  14  41 W13       30.45F WCI  27

$$

MDZ012-015-019>023-102000-
MARYLAND EASTERN SHORE

CITY           SKY/WX    TMP DP  RH WIND       PRES   REMARKS
OCEAN CITY     SUNNY     39  16  39 W10G21    30.41F
SALISBURY      PTSUNNY   39  18  42 W12       30.41F
BAY BRIDGE AP* SUNNY     37  16  41 W10       30.42F
CAMBRIDGE*     MOSUNNY   36  16  44 W10       30.42F WCI  28
EASTON*        SUNNY     39  12  33 NW10G17   30.45F

$$

MDZ017>025-102000-
SOUTHERN MARYLAND

CITY           SKY/WX    TMP DP  RH WIND       PRES   REMARKS
PATUXENT RIVER MOSUNNY   38  14  37 W14G21    30.43F
ST INIGOES     SUNNY     38  16  40 W12G20    30.43F
LEONARDTOWN*   SUNNY     36  12  38 NW8       30.45S

$$

MDZ003>005-102000-
NORTH CENTRAL MARYLAND

CITY           SKY/WX    TMP DP  RH WIND       PRES   REMARKS
FREDERICK*     SUNNY     34  12  40 NW15G25   30.46F WCI  24
HAGERSTOWN APT CLOUDY    32  10  40 W14       30.41F WCI  22
WESTMINSTER*     N/A     30  10  43 W14G21    30.38F WCI  20

$$

MDZ501>502-102000-
WESTERN MARYLAND

CITY           SKY/WX    TMP DP  RH WIND       PRES   REMARKS
OAKLAND*       CLOUDY    18  10  73 W9        30.30S HAZE    WCI   6
CUMBERLAND*    NOT AVBL

$$

VAZ025>031-102000-
SHENANDOAH VALLEY

CITY           SKY/WX    TMP DP  RH WIND       PRES   REMARKS
WINCHESTER*    SUNNY     32  10  40 NW14      30.43S WCI  22
FRONT ROYAL*   FAIR      34  12  40 N3        30.41F
LURAY*         FAIR      34  14  44 CALM      30.41S
NEW MARKET*    FAIR      34   8  34 CALM      30.40F
STAUNTON*      SUNNY     32  13  45 E5        30.40F
WAYNESBORO*    FAIR      32  10  39 W6        30.38F

$$

WVZ021-048>050-054>055-102000-
EASTERN WEST VIRGINIA PANHANDLE

CITY           SKY/WX    TMP DP  RH WIND       PRES   REMARKS
MARTINSBURG    MOSUNNY   33  11  39 NW14      30.44F WCI  23
PETERSBURG*    SUNNY     32  14  46 W13       30.45S WCI  22

$$

VAZ036>039-050-102000-
CENTRAL FOOTHILLS

CITY           SKY/WX    TMP DP  RH WIND       PRES   REMARKS
CHARLOTTESVILL SUNNY     38  12  34 VRB6      30.42F
CULPEPER*      SUNNY     38  13  36 W6        30.45S
ORANGE*          N/A     37  14  38 SW9       30.44F
GORDONSVILLE*  FAIR      36  12  36 W3        30.42F
WARRENTON*     FAIR      39   4  23 W6        30.43F

$$

VAZ055>057-102000-
NORTH AND CENTRAL PIEDMONT

CITY           SKY/WX    TMP DP  RH WIND       PRES   REMARKS
FREDERICKSBRG* SUNNY     37  15  40 W10       30.44F
STAFFORD*      SUNNY     37  12  36 W7        30.47F

$$

NCZ024-NYZ072-PAZ021-071-VAZ022-071-102000-
OTHER REGIONAL OBSERVATIONS

CITY           SKY/WX    TMP DP  RH WIND       PRES   REMARKS
NEW YORK CITY  CLOUDY    35  16  45 VRB5      30.35S
PHILADELPHIA   PTSUNNY   37  14  38 W9        30.38F
PITTSBURGH     FLURRIES  28  14  55 SW10      30.42S WCI  19
ROANOKE        SUNNY     39  11  31 NW8       30.43F
RICHMOND       MOSUNNY   38  12  34 W10       30.45F
RALEIGH        MOSUNNY   41  10  28 W7        30.47F

$$

ANZ530>537-102000-
MARINE OBSERVATIONS

STATION/POSITION TIME  TEMP    WIND        PRES
                       AIR SEA DIR/SP/G
                 (UTC) (F)     (DEG/KT/KT) (MB)
THOMAS PT LIGHT  1900   35 45  300/ 14/ 16   N/A
BALT KEY BRIDGE  1842   34     270/ 15/ 18 1030.1F
COVE POINT       1842   35     320/ 10/ 16 1031.0F
LEWISETTA        1842   37 43  340/  8/ 11 1030.4F
SOLOMONS ISLAND  1842   37 48  290/  7/ 13   N/A
PINEY POINT      1836          320/ 16/ 18   N/A

$$





USA.gov is the U.S. government's official web portal to all federal, state and local government web resources and services.